Galliano, LA

3:22 AM CST on November 22, 2017 (GMT -0600)
Galliano

Weather History for KGAO - February, 2014

Change the Weather History Date:

Monday, February 3, 2014

  Actual Average (KHUM) Record (KHUM)
Temperature  
Mean Temperature 54 °F -  
Max Temperature 65 °F 63 °F 86 °F (1975)
Min Temperature 44 °F 45 °F 13 °F (1951)
Degree Days  
Heating Degree Days 10    
Growing Degree Days 4 (Base 50)    
Moisture  
Dew Point 48 °F    
Average Humidity 91    
Maximum Humidity 100    
Minimum Humidity 77    
Precipitation  
Precipitation 0.11 in - - ()
Sea Level Pressure  
Sea Level Pressure 30.08 in    
Wind  
Wind Speed 13 mph (NNW)    
Max Wind Speed 20 mph    
Max Gust Speed 28 mph    
Visibility 9 miles    
Events Rain    
Averages and records for this station are not official NWS values.
T = Trace of Precipitation, MM = Missing Value Source: NWS Daily Summary

Daily Weather History Graph

Daily Weather History Graph

Search for Another Location

Airport or City:

Trip Planner

Search our weather history database for the weather conditions in past years. The results will help you decide how hot, cold, wet, or windy it might be!

Date:

Astronomy

Feb. 03, 2014 Rise Set
Actual Time 6:49 AM CST 5:40 PM CST
Civil Twilight 6:24 AM CST 6:05 PM CST
Nautical Twilight 5:56 AM CST 6:34 PM CST
Astronomical Twilight 5:27 AM CST 7:02 PM CST
Moon 9:14 AM CST (2/3) 10:05 PM CST (2/3)
Length of Visible Light 11h 41m
Length of Day
10h 51m
Waxing Crescent, 20% of the Moon is Illuminated
Feb 3
Waxing Crescent
Feb 6
First Quarter
Feb 14
Full
Feb 22
Last Quarter
Mar 1
New

Hourly Weather History & Observations

Time (CST) Temp. Windchill Dew Point Humidity Pressure Visibility Wind Dir Wind Speed Gust Speed Precip Events Conditions
12:15 AM 65.1 °F - 65.1 °F 100% 29.96 in 1.0 mi South 13.8 mph 18.4 mph N/A   Overcast
12:35 AM 64.4 °F - 64.4 °F 100% 29.96 in 0.8 mi SSW 13.8 mph 19.6 mph N/A   Overcast
12:55 AM 64.0 °F - 64.0 °F 100% 29.96 in 0.8 mi South 12.7 mph - N/A   Overcast
1:15 AM 63.5 °F - 63.5 °F 100% 29.98 in 1.0 mi SW 12.7 mph 18.4 mph N/A   Overcast
1:35 AM 57.9 °F - 57.9 °F 100% 29.99 in 3.0 mi WNW 12.7 mph - N/A Rain Light Rain
1:55 AM 53.1 °F - 53.1 °F 100% 30.00 in 2.5 mi NW 9.2 mph - 0.07 in Rain Heavy Rain
2:15 AM 51.8 °F - 51.8 °F 100% 30.00 in 10.0 mi NW 10.4 mph - 0.01 in Rain Light Rain
2:35 AM 51.4 °F - 51.4 °F 100% 30.01 in 10.0 mi NW 10.4 mph - 0.01 in   Overcast
2:55 AM 50.7 °F - 50.7 °F 100% 30.00 in 10.0 mi NNW 9.2 mph - 0.04 in Rain Light Rain
3:15 AM 50.5 °F - 50.5 °F 100% 30.01 in 10.0 mi NNW 10.4 mph - N/A   Overcast
3:35 AM 50.5 °F - 50.5 °F 100% 30.01 in 10.0 mi NNW 12.7 mph 17.3 mph N/A   Overcast
3:55 AM 49.6 °F - 49.6 °F 100% 30.02 in 10.0 mi NNW 15.0 mph 19.6 mph N/A   Overcast
4:15 AM 48.7 °F - 48.7 °F 100% 30.03 in 10.0 mi NNW 12.7 mph 19.6 mph N/A   Overcast
4:35 AM 47.8 °F - 47.5 °F 99% 30.04 in 10.0 mi NNW 13.8 mph - N/A   Overcast
4:55 AM 47.5 °F - 46.8 °F 97% 30.03 in 10.0 mi NNW 17.3 mph 23.0 mph N/A   Overcast
5:15 AM 48.4 °F - 47.3 °F 96% 30.04 in 10.0 mi NW 15.0 mph 24.2 mph N/A   Overcast
5:35 AM 47.5 °F - 46.4 °F 96% 30.05 in 10.0 mi NW 16.1 mph - N/A   Overcast
5:55 AM 46.8 °F - 45.7 °F 96% 30.05 in 10.0 mi NNW 18.4 mph 24.2 mph N/A   Overcast
6:15 AM 46.4 °F 39.8 °F 45.0 °F 95% 30.08 in 10.0 mi NNW 16.1 mph 21.9 mph N/A   Overcast
6:35 AM 45.9 °F 38.3 °F 44.6 °F 95% 30.08 in 10.0 mi NNW 19.6 mph - N/A   Overcast
6:55 AM 45.7 °F 38.6 °F 44.2 °F 95% 30.10 in 10.0 mi NNW 17.3 mph 21.9 mph N/A   Overcast
7:15 AM 45.5 °F 38.3 °F 44.2 °F 95% 30.10 in 10.0 mi NNW 17.3 mph 23.0 mph N/A   Overcast
7:35 AM 45.1 °F 37.6 °F 43.7 °F 95% 30.11 in 10.0 mi NNW 18.4 mph - N/A   Overcast
7:55 AM 44.8 °F 36.9 °F 43.5 °F 95% 30.11 in 10.0 mi NNW 19.6 mph 24.2 mph N/A   Overcast
8:15 AM 45.0 °F 38.2 °F 43.7 °F 95% 30.12 in 10.0 mi NNW 15.0 mph 18.4 mph N/A   Overcast
8:35 AM 44.1 °F 36.5 °F 42.8 °F 95% 30.12 in 10.0 mi NNW 17.3 mph 27.6 mph N/A   Overcast
8:55 AM 44.4 °F 36.6 °F 43.3 °F 96% 30.13 in 10.0 mi NNW 18.4 mph 24.2 mph N/A   Overcast
9:15 AM 44.8 °F 38.0 °F 43.7 °F 96% 30.14 in 10.0 mi NNW 15.0 mph - N/A   Overcast
9:35 AM 45.7 °F 38.6 °F 44.6 °F 96% 30.13 in 10.0 mi NNW 17.3 mph 20.7 mph N/A   Overcast
9:55 AM 46.2 °F 39.8 °F 44.8 °F 95% 30.14 in 10.0 mi North 15.0 mph - N/A   Overcast
10:15 AM 46.8 °F - 44.8 °F 93% 30.14 in 10.0 mi NNW 17.3 mph 24.2 mph N/A   Overcast
10:35 AM 47.5 °F - 45.3 °F 92% 30.13 in 10.0 mi North 16.1 mph 21.9 mph N/A   Overcast
10:55 AM 48.2 °F - 45.5 °F 90% 30.14 in 10.0 mi NNW 16.1 mph - N/A   Overcast
11:15 AM 48.4 °F - 45.5 °F 90% 30.14 in 10.0 mi NNW 15.0 mph - N/A   Overcast
11:35 AM 48.7 °F - 45.3 °F 88% 30.13 in 10.0 mi NNW 16.1 mph - N/A   Overcast
11:55 AM 49.1 °F - 45.5 °F 87% 30.12 in 10.0 mi NNW 16.1 mph - N/A   Overcast
12:15 PM 48.9 °F - 45.5 °F 88% 30.12 in 10.0 mi NNW 15.0 mph - N/A   Overcast
12:35 PM 50.0 °F - 45.9 °F 86% 30.11 in 10.0 mi NNW 11.5 mph - N/A   Overcast
12:55 PM 51.1 °F - 46.4 °F 84% 30.09 in 10.0 mi North 12.7 mph 18.4 mph N/A   Overcast
1:15 PM 51.3 °F - 46.4 °F 83% 30.09 in 10.0 mi North 12.7 mph - N/A   Overcast
1:35 PM 51.8 °F - 46.4 °F 82% 30.08 in 10.0 mi NNW 13.8 mph 19.6 mph N/A   Overcast
1:55 PM 52.7 °F - 46.4 °F 79% 30.08 in 10.0 mi NNW 12.7 mph - N/A   Overcast
2:15 PM 52.9 °F - 46.9 °F 80% 30.08 in 10.0 mi NNW 15.0 mph - N/A   Mostly Cloudy
2:35 PM 53.6 °F - 46.8 °F 78% 30.08 in 10.0 mi NNW 13.8 mph 17.3 mph N/A   Scattered Clouds
2:55 PM 54.0 °F - 46.8 °F 77% 30.07 in 10.0 mi North 13.8 mph - N/A   Scattered Clouds
3:15 PM 53.6 °F - 46.6 °F 77% 30.06 in 10.0 mi NNW 13.8 mph - N/A   Scattered Clouds
3:35 PM 53.2 °F - 46.0 °F 77% 30.06 in 10.0 mi North 12.7 mph - N/A   Mostly Cloudy
3:55 PM 53.6 °F - 46.6 °F 77% 30.07 in 10.0 mi North 15.0 mph - N/A   Overcast
4:15 PM 53.6 °F - 46.8 °F 78% 30.07 in 10.0 mi North 11.5 mph - N/A   Overcast
4:35 PM 53.2 °F - 46.9 °F 79% 30.07 in 10.0 mi North 10.4 mph - N/A   Overcast
4:55 PM 52.7 °F - 46.9 °F 81% 30.08 in 10.0 mi NNW 11.5 mph - N/A   Overcast
5:15 PM 51.8 °F - 46.4 °F 82% 30.08 in 10.0 mi NNW 10.4 mph - N/A   Overcast
5:35 PM 50.9 °F - 46.2 °F 84% 30.09 in 10.0 mi NNW 10.4 mph - N/A   Overcast
5:55 PM 50.2 °F - 46.2 °F 86% 30.09 in 10.0 mi NNW 9.2 mph - N/A   Overcast
6:15 PM 50.0 °F - 46.0 °F 86% 30.10 in 10.0 mi NNW 12.7 mph - N/A   Overcast
6:35 PM 49.3 °F - 46.0 °F 89% 30.09 in 10.0 mi NNW 11.5 mph - N/A   Overcast
6:55 PM 49.1 °F - 45.9 °F 89% 30.09 in 10.0 mi North 10.4 mph - N/A   Mostly Cloudy
7:15 PM 48.9 °F - 45.7 °F 89% 30.09 in 10.0 mi North 8.1 mph - N/A   Scattered Clouds
7:35 PM 48.6 °F - 45.9 °F 90% 30.10 in 10.0 mi North 10.4 mph - N/A   Mostly Cloudy
7:55 PM 48.6 °F - 45.9 °F 90% 30.09 in 10.0 mi North 13.8 mph - N/A   Scattered Clouds
8:15 PM 48.7 °F - 45.9 °F 90% 30.10 in 10.0 mi North 8.1 mph - N/A   Mostly Cloudy
8:35 PM 49.1 °F - 46.2 °F 90% 30.12 in 10.0 mi North 6.9 mph - N/A   Overcast
8:55 PM 49.5 °F - 46.8 °F 90% 30.11 in 10.0 mi North 8.1 mph - N/A   Overcast
9:15 PM 50.9 °F - 48.2 °F 90% 30.11 in 10.0 mi North 10.4 mph - N/A   Overcast
9:35 PM 51.1 °F - 48.0 °F 89% 30.10 in 10.0 mi North 12.7 mph - N/A   Overcast
9:55 PM 51.1 °F - 48.6 °F 91% 30.11 in 10.0 mi NNE 9.2 mph - N/A   Overcast
10:15 PM 50.5 °F - 48.6 °F 93% 30.11 in 10.0 mi North 12.7 mph - N/A   Overcast
10:35 PM 50.4 °F - 49.1 °F 95% 30.10 in 10.0 mi North 9.2 mph - N/A   Overcast
10:55 PM 50.0 °F - 48.7 °F 95% 30.10 in 10.0 mi NNE 10.4 mph - N/A   Overcast
11:15 PM 49.8 °F - 48.9 °F 97% 30.08 in 7.0 mi NE 10.4 mph - N/A   Overcast
11:35 PM 49.5 °F - 48.9 °F 98% 30.08 in 4.0 mi NE 8.1 mph - N/A   Overcast
11:55 PM 49.5 °F - 49.1 °F 99% 30.07 in 5.0 mi NE 9.2 mph - N/A   Overcast